This is the latest recevied weather packets stored in our database for station/object KD9JB-1. If no packets are shown the sender has not sent any weather packets the latest 1 day(s).
| Time | Temp. | Humidity | Pressure | Rain* | Wind** | Luminosity | Snow |
|---|---|---|---|---|---|---|---|
| 1778016995 | 16.67° C | 94% | 1006.8 hPa | 3.81 mm | 0.45 m/s, 9° | - | - |
| 1778016695 | 16.67° C | 94% | 1006.7 hPa | 3.05 mm | 0.45 m/s, 245° | - | - |
| 1778016395 | 16.11° C | 94% | 1006.7 hPa | 3.05 mm | 0.45 m/s, 1° | - | - |
| 1778016095 | 16.11° C | 94% | 1006.8 hPa | 2.54 mm | 0.89 m/s, 1° | - | - |
| 1778015795 | 16.11° C | 94% | 1006.9 hPa | 2.54 mm | 0.89 m/s, 229° | - | - |
| 1778015495 | 16.11° C | 93% | 1006.8 hPa | 2.29 mm | 0.45 m/s, 281° | - | - |
| 1778015195 | 16.67° C | 93% | 1006.7 hPa | 2.03 mm | 0.45 m/s, 178° | - | - |
| 1778014895 | 16.67° C | 93% | 1006.6 hPa | 2.03 mm | 0.89 m/s, 296° | - | - |
| 1778014595 | 16.67° C | 93% | 1006.6 hPa | 1.78 mm | 0.45 m/s, 135° | - | - |
| 1778014295 | 16.67° C | 93% | 1006.5 hPa | 1.52 mm | 0.45 m/s, 152° | - | - |
| 1778014003 | 16.67° C | 93% | 1006.6 hPa | 1.02 mm | 0.45 m/s, 206° | - | - |
| 1778013695 | 16.67° C | 93% | 1006.6 hPa | 0.76 mm | 0.45 m/s, 178° | - | - |
| 1778013395 | 16.67° C | 93% | 1006.8 hPa | 0.51 mm | 0.45 m/s, 178° | - | - |
| 1778013095 | 16.67° C | 93% | 1006.8 hPa | 0.51 mm | 0.45 m/s, 223° | - | - |
| 1778012795 | 16.67° C | 93% | 1006.9 hPa | 0.51 mm | 0.45 m/s, 178° | - | - |
| 1778012495 | 16.67° C | 93% | 1007 hPa | 0.25 mm | 0.45 m/s, 237° | - | - |
| 1778012195 | 16.67° C | 93% | 1007 hPa | 0 mm | 0.45 m/s, 210° | - | - |
| 1778011895 | 16.67° C | 93% | 1007.1 hPa | 0 mm | 0.45 m/s, 1° | - | - |
| 1778011595 | 16.67° C | 92% | 1007.2 hPa | 0 mm | 0.45 m/s, 223° | - | - |
| 1778011295 | 16.67° C | 92% | 1007.2 hPa | 0.25 mm | 0.45 m/s, 46° | - | - |
| 1778010995 | 16.67° C | 92% | 1007.2 hPa | 0.51 mm | 0.45 m/s, 223° | - | - |
| 1778010695 | 16.67° C | 92% | 1007.2 hPa | 0.76 mm | 0.45 m/s, 1° | - | - |
| 1778010395 | 16.67° C | 92% | 1007.3 hPa | 1.27 mm | 0.45 m/s, 46° | - | - |
| 1778010095 | 16.67° C | 92% | 1007.3 hPa | 1.52 mm | 0.45 m/s, 46° | - | - |
| 1778009795 | 16.67° C | 93% | 1007.4 hPa | 1.78 mm | 0.45 m/s, 193° | - | - |
* Rain latest hour (hover to see other rain measurements)
** Current wind speed in m/s (hover to see current wind gust speed)